Nathaniel B. Palmer — WBP3210 — position and weather

sailwx.info

Track history (hours):
 
Tides and Currents Weather Stations Pressure Air Temp Water Temp Dewpoint Dewpoint Depression Visibility Wind Speed Wind Dir Waves Ship Positions

Oceanographic research ship Nathaniel B. Palmer (USA)

Contact: Ethan Norris, ethan.norris.contractor@usap.gov

Detailed information on ship capabilities available from University of Delaware's Ocean Information Center and ARCUS's ALIAS (Arctic Logistics Information and Support) project.

Owner: OFFSHORE SERVICE VESSELS, GALLIANO, LA. More information available from US FCC via Universal Licensing System and Coast Guard Vessel Documentation Center.

Last reported at 2015-Jul-01 18:00 UTC. Time now 2015-Jul-01 19:09 UTC.
Position S 53°00' W 070°48'.

Type: Other ship. MMSI: 366610000.

Wind from 150 at 7 knots

Barometer 1013.5 mb
Air temperature 3.7 ° C
Water temperature 11.9 ° C

Date/timePositionNaut miles runAvg speedWind from/ knotsBaromVisibWave heightAir tempDewpointWater temp
2015-Jul-01 18:00S 53°00' W 070°48'0 0.0 150 / 71013.5 3.7 11.9
2015-Jul-01 16:00S 53°00' W 070°48'0 0.0 260 / 71014.4 3.3 11.9
2015-Jul-01 14:00S 53°00' W 070°48'0 0.0 280 / 41014.2 2.3 11.9
2015-Jul-01 12:00S 53°00' W 070°48'0 0.0 140 / 81013.3 1.9 11.9
2015-Jul-01 10:00S 53°00' W 070°48'0 0.0 240 / 121012.3 3.4 11.9
2015-Jul-01 08:00S 53°00' W 070°48'0 0.0 180 / 111011.6 3.1 11.9
2015-Jul-01 04:00S 53°00' W 070°48'0 0.0 100 / 91010.2 2.8 11.9
2015-Jul-01 02:00S 53°00' W 070°48'0 0.0 100 / 61010.3 1.4 11.9
2015-Jul-01 00:00S 53°00' W 070°48'0 0.0 080 / 121009.5 3.0 11.9
2015-Jun-30 22:00S 53°00' W 070°48'0 0.0 090 / 221007.1 3.1 11.9
2015-Jun-30 20:00S 53°00' W 070°48'0 0.0 150 / 171005.1 2.7 11.9
2015-Jun-30 18:00S 53°00' W 070°48'0 0.0 170 / 141004.6 2.8 11.9
2015-Jun-30 16:00S 53°00' W 070°48'0 0.0 210 / 131004.8 2.7 11.9
2015-Jun-30 12:00S 53°00' W 070°48'0 0.0 120 / 181002.2 1.9 11.9
2015-Jun-30 10:00S 53°00' W 070°48'0 0.0 230 / 151001.8 1.9 11.9
2015-Jun-30 08:00S 53°00' W 070°48'0 0.0 150 / 26999.9 2.2 11.9
2015-Jun-30 04:00S 53°00' W 070°48'0 0.0 120 / 241000.1 1.6 11.9
2015-Jun-30 02:00S 53°00' W 070°48'0 0.0 110 / 221000.7 1.5 11.9
2015-Jun-30 00:00S 53°00' W 070°48'0 0.0 220 / 111001.8 0.8 11.9
2015-Jun-29 22:00S 53°00' W 070°48'0 0.0 100 / 14999.9 1.7 11.9
2015-Jun-29 20:00S 53°00' W 070°48'0 0.0 120 / 19997.7 2.1 11.9
2015-Jun-29 18:00S 53°00' W 070°48'0 0.0 160 / 14997.5 2.3 11.9
2015-Jun-29 16:00S 53°00' W 070°48'0 0.0 020 / 21996.2 1.9 11.9
2015-Jun-29 14:00S 53°00' W 070°48'0 0.0 190 / 15995.7 0.9 11.9
2015-Jun-29 12:00S 53°00' W 070°48'0 0.0 130 / 15994.1 1.5 11.9
2015-Jun-29 10:00S 53°00' W 070°48'0 0.0 230 / 20990.5 1.5 11.9
2015-Jun-29 08:00S 53°00' W 070°48'0 0.0 150 / 14989.9 1.8 11.9
2015-Jun-29 04:00S 53°00' W 070°48'0 0.0 120 / 15986.4 1.6 11.9
2015-Jun-29 02:00S 53°00' W 070°48'0 0.0 360 / 23984.4 2.0 11.9
2015-Jun-29 00:00S 53°00' W 070°48'0 0.0 210 / 20983.9 2.3 11.9
2015-Jun-28 22:00S 53°00' W 070°48'0 0.0 100 / 24982.4 2.3 11.9
2015-Jun-28 20:00S 53°00' W 070°48'0 0.0 210 / 19982.0 2.8 11.9
2015-Jun-28 18:00S 53°00' W 070°48'0 0.0 040 / 29980.7 3.0 11.9
2015-Jun-28 16:00S 53°00' W 070°48'0 0.0 140 / 25981.3 2.7 11.9
2015-Jun-28 12:00S 53°00' W 070°48'0 0.0 170 / 10981.4 1.5 11.9
2015-Jun-28 08:00S 53°00' W 070°48'0 0.0 180 / 13978.2 4.0 11.9
2015-Jun-28 04:00S 53°00' W 070°48'0 0.0 130 / 10978.1 5.0 11.9
2015-Jun-28 02:00S 53°00' W 070°48'0 0.0 260 / 23976.3 4.5 11.9
2015-Jun-28 00:00S 53°00' W 070°48'0 0.0 140 / 31974.6 4.4 11.9
2015-Jun-27 22:00S 53°00' W 070°48'0 0.0 190 / 38974.3 3.7 11.9
2015-Jun-27 20:00S 53°00' W 070°48'0 0.0 140 / 41974.1 4.4 11.9
2015-Jun-27 18:00S 53°00' W 070°48'0 0.0 180 / 43975.6 6.2 11.9
2015-Jun-27 16:00S 53°00' W 070°48'0 0.0 100 / 25983.3 6.3 11.9
2015-Jun-27 14:00S 53°00' W 070°48'0 0.0 320 / 18987.4 5.3 11.9
2015-Jun-27 12:00S 53°00' W 070°48'0 0.0 090 / 21989.8 5.4 11.9
2015-Jun-27 10:00S 53°00' W 070°48'0 0.0 150 / 25991.8 5.1 11.9
2015-Jun-27 08:00S 53°00' W 070°48'0 0.0 220 / 23993.9 5.5 11.9
2015-Jun-27 02:00S 53°00' W 070°48'0 0.0 010 / 151000.5 3.5 11.9
2015-Jun-27 00:00S 53°00' W 070°48'0 0.0 150 / 241004.5 5.5 11.9
2015-Jun-26 22:00S 53°00' W 070°48'0 0.0 210 / 181004.4 5.0 11.9
2015-Jun-26 20:00S 53°00' W 070°48'0 0.0 220 / 91006.1 4.4 11.9
2015-Jun-26 18:00S 53°00' W 070°48'0 0.0 230 / 61006.5 5.0 11.9
2015-Jun-26 16:00S 53°00' W 070°48'0 0.0 240 / 201005.1 4.4 11.9
2015-Jun-26 14:00S 53°00' W 070°48'0 0.0 030 / 31005.5 3.7 11.9
2015-Jun-26 12:00S 53°00' W 070°48'0 0.0 350 / 81004.3 3.9 11.9
2015-Jun-26 04:00S 53°00' W 070°48'0 0.0 160 / 71001.3 4.8 11.9
2015-Jun-26 00:00S 53°00' W 070°48'0 0.0 180 / 5999.3 6.6 11.9
2015-Jun-25 22:00S 53°00' W 070°48'0 0.0 190 / 16996.2 7.6 11.9
2015-Jun-25 18:00S 53°00' W 070°48'0 0.0 110 / 26992.5 9.4 11.9
2015-Jun-25 16:00S 53°00' W 070°48'0 0.0 050 / 24992.0 9.1 11.9
2015-Jun-25 12:00S 53°00' W 070°48'0 0.0 340 / 5991.8 2.4 11.9
2015-Jun-25 04:00S 53°00' W 070°48'0 0.0 250 / 2994.6 4.2 11.9
2015-Jun-25 02:00S 53°00' W 070°48'0 0.0 340 / 2995.3 4.5 11.9
2015-Jun-25 00:00S 53°00' W 070°48'0 0.0 200 / 5995.8 4.7 11.9
2015-Jun-24 22:00S 53°00' W 070°48'0 0.0 120 / 6996.3 4.8 11.9
2015-Jun-24 20:00S 53°00' W 070°48'0 0.0 190 / 6997.1 4.7 11.9
2015-Jun-24 18:00S 53°00' W 070°48'0 0.0 120 / 6998.4 4.6 11.9
2015-Jun-24 16:00S 53°00' W 070°48'0 0.0 070 / 21000.4 5.7 11.9
2015-Jun-24 14:00S 53°00' W 070°48'0 0.0 020 / 61001.4 4.8 11.9
2015-Jun-24 12:00S 53°00' W 070°48'0 0.0 270 / 141001.8 4.9 11.9
2015-Jun-24 10:00S 53°00' W 070°48'0 0.0 320 / 81002.2 5.1 11.9
2015-Jun-24 08:00S 53°00' W 070°48'0 0.0 220 / 71003.0 5.2 11.9
2015-Jun-24 04:00S 53°00' W 070°48'0 0.0 140 / 91003.3 4.7 11.9
2015-Jun-24 02:00S 53°00' W 070°48'0 0.0 190 / 71002.5 5.9 11.9
2015-Jun-24 00:00S 53°00' W 070°48'0 0.0 360 / 81000.8 6.8 11.9
2015-Jun-23 22:00S 53°00' W 070°48'0 0.0 290 / 2999.2 7.0 11.9
2015-Jun-23 20:00S 53°00' W 070°48'0 0.0 240 / 10997.7 7.5 11.9
2015-Jun-23 18:00S 53°00' W 070°48'0 0.0 160 / 19996.8 8.2 11.9
2015-Jun-23 16:00S 53°00' W 070°48'0 0.0 270 / 13997.7 8.3 11.9
2015-Jun-23 12:00S 53°00' W 070°48'0 0.0 330 / 11997.5 6.0 11.9
2015-Jun-23 10:00S 53°00' W 070°48'0 0.0 010 / 10997.5 5.4 11.9
2015-Jun-23 04:00S 53°00' W 070°48'0 0.0 060 / 151003.7 5.0 11.9
2015-Jun-23 02:00S 53°00' W 070°48'0 0.0 230 / 151005.8 4.4 11.9
2015-Jun-23 00:00S 53°00' W 070°48'0 0.0 200 / 91007.7 4.1 11.9
2015-Jun-22 22:00S 53°00' W 070°48'0 0.0 240 / 91009.5 4.7 11.9
2015-Jun-22 20:00S 53°00' W 070°48'0 0.0 170 / 101011.1 6.0 11.9
2015-Jun-22 18:00S 53°00' W 070°48'0 0.0 160 / 151011.6 5.6 11.9
2015-Jun-22 16:00S 53°00' W 070°48'0 0.0 240 / 51013.9 5.0 11.9
2015-Jun-22 12:00S 53°00' W 070°48'0 0.0 310 / 51014.3 4.1 11.9
2015-Jun-22 10:00S 53°00' W 070°48'0 0.0 300 / 51014.5 4.9 11.9
2015-Jun-22 08:00S 53°00' W 070°48'0 0.0 340 / 41014.4 4.2 11.9
2015-Jun-22 04:00S 53°00' W 070°48'0 0.0 170 / 261012.5 3.1 11.9
2015-Jun-22 02:00S 53°00' W 070°48'0 0.0 060 / 81012.6 2.2 11.9
2015-Jun-22 00:00S 53°00' W 070°48'0 0.0 280 / 121010.1 2.0 11.9
2015-Jun-21 22:00S 53°00' W 070°48'0 0.0 330 / 161007.7 1.6 11.9
2015-Jun-21 20:00S 53°00' W 070°48'0 0.0 290 / 161005.5 0.3 11.9
2015-Jun-21 18:00S 53°00' W 070°48'   330 / 141003.6 0.6 11.9
Track history (hours):
 
Tides and Currents Weather Stations Pressure Air Temp Water Temp Dewpoint Dewpoint Depression Visibility Wind Speed Wind Dir Waves Ship Positions

Oceanographic research ship Nathaniel B. Palmer (USA)

Contact: Ethan Norris, ethan.norris.contractor@usap.gov

Detailed information on ship capabilities available from University of Delaware's Ocean Information Center and ARCUS's ALIAS (Arctic Logistics Information and Support) project.

Owner: OFFSHORE SERVICE VESSELS, GALLIANO, LA. More information available from US FCC via Universal Licensing System and Coast Guard Vessel Documentation Center.

Last reported at 2015-Jul-01 18:00 UTC. Time now 2015-Jul-01 19:09 UTC.
Position S 53°00' W 070°48'.

Type: Other ship. MMSI: 366610000.

Wind from 150 at 7 knots

Barometer 1013.5 mb
Air temperature 3.7 ° C
Water temperature 11.9 ° C

Date/timePositionNaut miles runAvg speedWind from/ knotsBaromVisibWave heightAir tempDewpointWater temp
2015-Jul-01 18:00S 53°00' W 070°48'0 0.0 150 / 71013.5 3.7 11.9
2015-Jul-01 16:00S 53°00' W 070°48'0 0.0 260 / 71014.4 3.3 11.9
2015-Jul-01 14:00S 53°00' W 070°48'0 0.0 280 / 41014.2 2.3 11.9
2015-Jul-01 12:00S 53°00' W 070°48'0 0.0 140 / 81013.3 1.9 11.9
2015-Jul-01 10:00S 53°00' W 070°48'0 0.0 240 / 121012.3 3.4 11.9
2015-Jul-01 08:00S 53°00' W 070°48'0 0.0 180 / 111011.6 3.1 11.9
2015-Jul-01 04:00S 53°00' W 070°48'0 0.0 100 / 91010.2 2.8 11.9
2015-Jul-01 02:00S 53°00' W 070°48'0 0.0 100 / 61010.3 1.4 11.9
2015-Jul-01 00:00S 53°00' W 070°48'0 0.0 080 / 121009.5 3.0 11.9
2015-Jun-30 22:00S 53°00' W 070°48'0 0.0 090 / 221007.1 3.1 11.9
2015-Jun-30 20:00S 53°00' W 070°48'0 0.0 150 / 171005.1 2.7 11.9
2015-Jun-30 18:00S 53°00' W 070°48'0 0.0 170 / 141004.6 2.8 11.9
2015-Jun-30 16:00S 53°00' W 070°48'0 0.0 210 / 131004.8 2.7 11.9
2015-Jun-30 12:00S 53°00' W 070°48'0 0.0 120 / 181002.2 1.9 11.9
2015-Jun-30 10:00S 53°00' W 070°48'0 0.0 230 / 151001.8 1.9 11.9
2015-Jun-30 08:00S 53°00' W 070°48'0 0.0 150 / 26999.9 2.2 11.9
2015-Jun-30 04:00S 53°00' W 070°48'0 0.0 120 / 241000.1 1.6 11.9
2015-Jun-30 02:00S 53°00' W 070°48'0 0.0 110 / 221000.7 1.5 11.9
2015-Jun-30 00:00S 53°00' W 070°48'0 0.0 220 / 111001.8 0.8 11.9
2015-Jun-29 22:00S 53°00' W 070°48'0 0.0 100 / 14999.9 1.7 11.9
2015-Jun-29 20:00S 53°00' W 070°48'0 0.0 120 / 19997.7 2.1 11.9
2015-Jun-29 18:00S 53°00' W 070°48'0 0.0 160 / 14997.5 2.3 11.9
2015-Jun-29 16:00S 53°00' W 070°48'0 0.0 020 / 21996.2 1.9 11.9
2015-Jun-29 14:00S 53°00' W 070°48'0 0.0 190 / 15995.7 0.9 11.9
2015-Jun-29 12:00S 53°00' W 070°48'0 0.0 130 / 15994.1 1.5 11.9
2015-Jun-29 10:00S 53°00' W 070°48'0 0.0 230 / 20990.5 1.5 11.9
2015-Jun-29 08:00S 53°00' W 070°48'0 0.0 150 / 14989.9 1.8 11.9
2015-Jun-29 04:00S 53°00' W 070°48'0 0.0 120 / 15986.4 1.6 11.9
2015-Jun-29 02:00S 53°00' W 070°48'0 0.0 360 / 23984.4 2.0 11.9
2015-Jun-29 00:00S 53°00' W 070°48'0 0.0 210 / 20983.9 2.3 11.9
2015-Jun-28 22:00S 53°00' W 070°48'0 0.0 100 / 24982.4 2.3 11.9
2015-Jun-28 20:00S 53°00' W 070°48'0 0.0 210 / 19982.0 2.8 11.9
2015-Jun-28 18:00S 53°00' W 070°48'0 0.0 040 / 29980.7 3.0 11.9
2015-Jun-28 16:00S 53°00' W 070°48'0 0.0 140 / 25981.3 2.7 11.9
2015-Jun-28 12:00S 53°00' W 070°48'0 0.0 170 / 10981.4 1.5 11.9
2015-Jun-28 08:00S 53°00' W 070°48'0 0.0 180 / 13978.2 4.0 11.9
2015-Jun-28 04:00S 53°00' W 070°48'0 0.0 130 / 10978.1 5.0 11.9
2015-Jun-28 02:00S 53°00' W 070°48'0 0.0 260 / 23976.3 4.5 11.9
2015-Jun-28 00:00S 53°00' W 070°48'0 0.0 140 / 31974.6 4.4 11.9
2015-Jun-27 22:00S 53°00' W 070°48'0 0.0 190 / 38974.3 3.7 11.9
2015-Jun-27 20:00S 53°00' W 070°48'0 0.0 140 / 41974.1 4.4 11.9
2015-Jun-27 18:00S 53°00' W 070°48'0 0.0 180 / 43975.6 6.2 11.9
2015-Jun-27 16:00S 53°00' W 070°48'0 0.0 100 / 25983.3 6.3 11.9
2015-Jun-27 14:00S 53°00' W 070°48'0 0.0 320 / 18987.4 5.3 11.9
2015-Jun-27 12:00S 53°00' W 070°48'0 0.0 090 / 21989.8 5.4 11.9
2015-Jun-27 10:00S 53°00' W 070°48'0 0.0 150 / 25991.8 5.1 11.9
2015-Jun-27 08:00S 53°00' W 070°48'0 0.0 220 / 23993.9 5.5 11.9
2015-Jun-27 02:00S 53°00' W 070°48'0 0.0 010 / 151000.5 3.5 11.9
2015-Jun-27 00:00S 53°00' W 070°48'0 0.0 150 / 241004.5 5.5 11.9
2015-Jun-26 22:00S 53°00' W 070°48'0 0.0 210 / 181004.4 5.0 11.9
2015-Jun-26 20:00S 53°00' W 070°48'0 0.0 220 / 91006.1 4.4 11.9
2015-Jun-26 18:00S 53°00' W 070°48'0 0.0 230 / 61006.5 5.0 11.9
2015-Jun-26 16:00S 53°00' W 070°48'0 0.0 240 / 201005.1 4.4 11.9
2015-Jun-26 14:00S 53°00' W 070°48'0 0.0 030 / 31005.5 3.7 11.9
2015-Jun-26 12:00S 53°00' W 070°48'0 0.0 350 / 81004.3 3.9 11.9
2015-Jun-26 04:00S 53°00' W 070°48'0 0.0 160 / 71001.3 4.8 11.9
2015-Jun-26 00:00S 53°00' W 070°48'0 0.0 180 / 5999.3 6.6 11.9
2015-Jun-25 22:00S 53°00' W 070°48'0 0.0 190 / 16996.2 7.6 11.9
2015-Jun-25 18:00S 53°00' W 070°48'0 0.0 110 / 26992.5 9.4 11.9
2015-Jun-25 16:00S 53°00' W 070°48'0 0.0 050 / 24992.0 9.1 11.9
2015-Jun-25 12:00S 53°00' W 070°48'0 0.0 340 / 5991.8 2.4 11.9
2015-Jun-25 04:00S 53°00' W 070°48'0 0.0 250 / 2994.6 4.2 11.9
2015-Jun-25 02:00S 53°00' W 070°48'0 0.0 340 / 2995.3 4.5 11.9
2015-Jun-25 00:00S 53°00' W 070°48'0 0.0 200 / 5995.8 4.7 11.9
2015-Jun-24 22:00S 53°00' W 070°48'0 0.0 120 / 6996.3 4.8 11.9
2015-Jun-24 20:00S 53°00' W 070°48'0 0.0 190 / 6997.1 4.7 11.9
2015-Jun-24 18:00S 53°00' W 070°48'0 0.0 120 / 6998.4 4.6 11.9
2015-Jun-24 16:00S 53°00' W 070°48'0 0.0 070 / 21000.4 5.7 11.9
2015-Jun-24 14:00S 53°00' W 070°48'0 0.0 020 / 61001.4 4.8 11.9
2015-Jun-24 12:00S 53°00' W 070°48'0 0.0 270 / 141001.8 4.9 11.9
2015-Jun-24 10:00S 53°00' W 070°48'0 0.0 320 / 81002.2 5.1 11.9
2015-Jun-24 08:00S 53°00' W 070°48'0 0.0 220 / 71003.0 5.2 11.9
2015-Jun-24 04:00S 53°00' W 070°48'0 0.0 140 / 91003.3 4.7 11.9
2015-Jun-24 02:00S 53°00' W 070°48'0 0.0 190 / 71002.5 5.9 11.9
2015-Jun-24 00:00S 53°00' W 070°48'0 0.0 360 / 81000.8 6.8 11.9
2015-Jun-23 22:00S 53°00' W 070°48'0 0.0 290 / 2999.2 7.0 11.9
2015-Jun-23 20:00S 53°00' W 070°48'0 0.0 240 / 10997.7 7.5 11.9
2015-Jun-23 18:00S 53°00' W 070°48'0 0.0 160 / 19996.8 8.2 11.9
2015-Jun-23 16:00S 53°00' W 070°48'0 0.0 270 / 13997.7 8.3 11.9
2015-Jun-23 12:00S 53°00' W 070°48'0 0.0 330 / 11997.5 6.0 11.9
2015-Jun-23 10:00S 53°00' W 070°48'0 0.0 010 / 10997.5 5.4 11.9
2015-Jun-23 04:00S 53°00' W 070°48'0 0.0 060 / 151003.7 5.0 11.9
2015-Jun-23 02:00S 53°00' W 070°48'0 0.0 230 / 151005.8 4.4 11.9
2015-Jun-23 00:00S 53°00' W 070°48'0 0.0 200 / 91007.7 4.1 11.9
2015-Jun-22 22:00S 53°00' W 070°48'0 0.0 240 / 91009.5 4.7 11.9
2015-Jun-22 20:00S 53°00' W 070°48'0 0.0 170 / 101011.1 6.0 11.9
2015-Jun-22 18:00S 53°00' W 070°48'0 0.0 160 / 151011.6 5.6 11.9
2015-Jun-22 16:00S 53°00' W 070°48'0 0.0 240 / 51013.9 5.0 11.9
2015-Jun-22 12:00S 53°00' W 070°48'0 0.0 310 / 51014.3 4.1 11.9
2015-Jun-22 10:00S 53°00' W 070°48'0 0.0 300 / 51014.5 4.9 11.9
2015-Jun-22 08:00S 53°00' W 070°48'0 0.0 340 / 41014.4 4.2 11.9
2015-Jun-22 04:00S 53°00' W 070°48'0 0.0 170 / 261012.5 3.1 11.9
2015-Jun-22 02:00S 53°00' W 070°48'0 0.0 060 / 81012.6 2.2 11.9
2015-Jun-22 00:00S 53°00' W 070°48'0 0.0 280 / 121010.1 2.0 11.9
2015-Jun-21 22:00S 53°00' W 070°48'0 0.0 330 / 161007.7 1.6 11.9
2015-Jun-21 20:00S 53°00' W 070°48'0 0.0 290 / 161005.5 0.3 11.9
2015-Jun-21 18:00S 53°00' W 070°48'   330 / 141003.6 0.6 11.9

Dump ship's entire track history